Location: Foulognes
(49.1413°N, 0.8183°W)
Time: 02:07:21
(UTC+00:00)

STARLINK-37 - Pass Details

Date: 21 October 2019
Orbit: 550 x 553 km, 53.0° (Epoch: 15 November)

Event Time Altitude Azimuth Distance (km) Brightness Sun altitude
Rises 17:23:56 0° 265° (W) 2,723 9.8 -4.3°
Reaches altitude 10° 17:26:12 10° 270° (W) 1,829 8.0 -4.6°
Maximum altitude 17:30:18 55° 349° (NNW) 668 4.1 -5.3°
Drops below altitude 10° 17:34:23 10° 68° (ENE) 1,831 5.6 -5.9°
Enters shadow 17:34:59 - 69° (ENE) 2,062 5.9 -6.0°
